Tracking 19908 objects as of 19-Oct-2019
HD Live streaming from Space Station
objects crossing your sky now

ATLAS D DEB

Track ATLAS D DEB now!
10-day predictions


NORAD ID: 2329
Int'l Code: 1966-063D
Perigee: 926.2 km
Apogee: 953.7 km
Inclination: 144.3 °
Period: 103.7 minutes
Semi major axis: 7310 km
RCS: 0.1089 m2 (medium)
Launch date: July 14, 1966
Source: United States (US)
Launch site: AIR FORCE WESTERN TEST RANGE (AFWTR)

Note: This is SATELLITE DEBRIS
aabbcc
Your satellite tracking list
Your tracking list is empty




NASA's NSSDC Master Catalog

Two Line Element Set (TLE):
1  2329U 66063D   19291.35440682  .00000434  00000-0  14075-3 0  9992
2  2329 144.2809  79.4057 0018865 207.3899 178.0919 13.88807045683853
Source of the keplerian elements: AFSPC